TimeEDT,TemperatureF,Dew PointF,Humidity,Sea Level PressureIn,VisibilityMPH,Wind Direction,Wind SpeedMPH,Gust SpeedMPH,PrecipitationIn,Events,Conditions,WindDirDegrees,DateUTC
12:54 AM,39.0,30.9,73,29.83,10.0,WNW,6.9,-,N/A,,Overcast,290,2012-11-03 04:54:00
1:54 AM,39.9,30.9,70,29.83,10.0,WNW,9.2,-,N/A,,Overcast,300,2012-11-03 05:54:00
2:54 AM,39.9,30.9,70,29.83,10.0,WNW,9.2,-,N/A,,Overcast,290,2012-11-03 06:54:00
3:54 AM,39.9,30.9,70,29.83,10.0,WNW,9.2,-,N/A,,Overcast,290,2012-11-03 07:54:00
4:54 AM,39.9,28.0,63,29.85,10.0,WNW,13.8,23.0,N/A,,Mostly Cloudy,300,2012-11-03 08:54:00
5:54 AM,39.9,28.0,63,29.86,10.0,NW,9.2,19.6,N/A,,Overcast,320,2012-11-03 09:54:00
6:54 AM,39.9,28.0,63,29.87,10.0,WNW,9.2,19.6,N/A,,Overcast,290,2012-11-03 10:54:00
7:54 AM,39.9,28.0,63,29.90,10.0,WNW,10.4,-,N/A,,Overcast,300,2012-11-03 11:54:00
8:54 AM,41.0,28.9,62,29.91,10.0,WNW,9.2,18.4,N/A,,Overcast,300,2012-11-03 12:54:00
9:54 AM,42.1,28.9,60,29.92,10.0,WNW,9.2,17.3,N/A,,Overcast,300,2012-11-03 13:54:00
10:54 AM,43.0,28.0,56,29.92,10.0,NNW,13.8,28.8,N/A,,Mostly Cloudy,330,2012-11-03 14:54:00
11:54 AM,44.1,28.9,55,29.92,10.0,NW,12.7,24.2,N/A,,Overcast,320,2012-11-03 15:54:00
12:54 PM,45.0,28.0,52,29.91,10.0,NW,13.8,25.3,N/A,,Overcast,320,2012-11-03 16:54:00
1:54 PM,46.0,28.9,51,29.91,10.0,NW,11.5,23.0,N/A,,Overcast,320,2012-11-03 17:54:00
2:54 PM,46.9,28.9,50,29.90,10.0,WNW,13.8,21.9,N/A,,Overcast,300,2012-11-03 18:54:00
3:54 PM,45.0,28.9,53,29.92,10.0,WNW,13.8,19.6,N/A,,Overcast,300,2012-11-03 19:54:00
4:54 PM,45.0,28.9,53,29.93,10.0,NW,10.4,17.3,N/A,,Overcast,320,2012-11-03 20:54:00
5:54 PM,44.1,27.0,51,29.94,10.0,NW,11.5,18.4,N/A,,Overcast,320,2012-11-03 21:54:00
6:54 PM,43.0,27.0,53,29.96,10.0,NW,16.1,23.0,N/A,,Overcast,320,2012-11-03 22:54:00
7:54 PM,43.0,27.0,53,29.97,10.0,NW,15.0,25.3,N/A,,Mostly Cloudy,320,2012-11-03 23:54:00
8:54 PM,42.1,27.0,55,29.98,10.0,NW,12.7,21.9,N/A,,Overcast,320,2012-11-04 00:54:00
9:54 PM,42.1,28.0,58,29.99,10.0,North,12.7,17.3,N/A,,Overcast,350,2012-11-04 01:54:00
10:54 PM,41.0,28.0,60,30.01,10.0,NNW,4.6,-,N/A,,Overcast,330,2012-11-04 02:54:00
11:54 PM,41.0,28.0,60,30.01,10.0,NW,8.1,-,N/A,,Overcast,320,2012-11-04 03:54:00